When you browse on this site, cookies collect data to enhance your experience and personalize the content and advertising you see.
Visit our Privacy Policy to learn more. By continuing to use the site, you agree to this use of cookies and data.
  • In Germany
  • List of Countries
  • For 7 days
  • Water Temperature
  • Weather Map
  • Weather Widgets
  • user-avatar
    Login

    Hourly Weather Chakhansur

    Today, 19 September, Thursday

    Time Temperature Precipitation Wind Pressure Humidity
    00:00 +27°C° 0 mm 3 mps 715 mmHg 8%
    01:00 +27°C° 0 mm 3 mps 714 mmHg 9%
    02:00 +26°C° 0 mm 3 mps 714 mmHg 11%
    03:00 +24°C° 0 mm 3 mps 714 mmHg 13%
    04:00 +23°C° 0 mm 2 mps 714 mmHg 14%
    05:00 +24°C° 0 mm 3 mps 715 mmHg 14%
    06:00 +25°C° 0 mm 3 mps 715 mmHg 13%
    07:00 +27°C° 0 mm 3 mps 716 mmHg 12%
    08:00 +30°C° 0 mm 3 mps 716 mmHg 10%
    09:00 +34°C° 0 mm 3 mps 717 mmHg 8%
    10:00 +37°C° 0 mm 2 mps 717 mmHg 6%
    11:00 +38°C° 0 mm 2 mps 717 mmHg 5%
    12:00 +40°C° 0 mm 2 mps 716 mmHg 4%
    13:00 +42°C° 0 mm 1 mps 716 mmHg 4%
    14:00 +42°C° 0 mm 1 mps 715 mmHg 3%
    15:00 +43°C° 0 mm 2 mps 715 mmHg 3%
    16:00 +43°C° 0 mm 2 mps 715 mmHg 3%
    17:00 +40°C° 0 mm 2 mps 715 mmHg 4%
    18:00 +37°C° 0 mm 3 mps 714 mmHg 5%
    19:00 +34°C° 0 mm 3 mps 714 mmHg 6%
    20:00 +33°C° 0 mm 3 mps 714 mmHg 7%
    21:00 +31°C° 0 mm 3 mps 714 mmHg 9%
    22:00 +29°C° 0 mm 3 mps 714 mmHg 10%
    23:00 +29°C° 0 mm 3 mps 713 mmHg 12%

    Tomorrow, 20 September, Friday

    Time Temperature Precipitation Wind Pressure Humidity
    00:00 +28°C° 0 mm 3 mps 713 mmHg 13%
    01:00 +28°C° 0 mm 4 mps 713 mmHg 14%
    02:00 +27°C° 0 mm 4 mps 713 mmHg 15%
    03:00 +26°C° 0 mm 4 mps 713 mmHg 15%
    04:00 +26°C° 0 mm 4 mps 712 mmHg 16%
    05:00 +26°C° 0 mm 4 mps 713 mmHg 14%
    06:00 +27°C° 0 mm 4 mps 713 mmHg 13%
    07:00 +28°C° 0 mm 4 mps 714 mmHg 11%
    08:00 +32°C° 0 mm 4 mps 714 mmHg 10%
    09:00 +35°C° 0 mm 4 mps 715 mmHg 8%
    10:00 +38°C° 0 mm 4 mps 715 mmHg 6%
    11:00 +41°C° 0 mm 4 mps 715 mmHg 5%
    12:00 +43°C° 0 mm 3 mps 714 mmHg 5%
    13:00 +44°C° 0 mm 3 mps 714 mmHg 4%
    14:00 +45°C° 0 mm 3 mps 714 mmHg 4%
    15:00 +45°C° 0 mm 3 mps 713 mmHg 4%
    16:00 +45°C° 0 mm 3 mps 713 mmHg 4%
    17:00 +40°C° 0 mm 2 mps 713 mmHg 5%
    18:00 +36°C° 0 mm 2 mps 712 mmHg 6%
    19:00 +32°C° 0 mm 2 mps 712 mmHg 7%
    20:00 +31°C° 0 mm 3 mps 712 mmHg 8%
    21:00 +32°C° 0 mm 4 mps 713 mmHg 9%
    22:00 +32°C° 0 mm 4 mps 713 mmHg 10%
    23:00 +29°C° 0 mm 5 mps 712 mmHg 12%

    Day after tomorrow, 21 September, Saturday

    Time Temperature Precipitation Wind Pressure Humidity
    00:00 +28°C° 0 mm 5 mps 712 mmHg 14%
    01:00 +27°C° 0 mm 5 mps 712 mmHg 16%
    02:00 +27°C° 0 mm 4 mps 712 mmHg 17%
    03:00 +26°C° 0 mm 4 mps 712 mmHg 18%
    04:00 +25°C° 0 mm 4 mps 712 mmHg 19%
    05:00 +26°C° 0 mm 3 mps 712 mmHg 18%
    06:00 +27°C° 0 mm 3 mps 713 mmHg 16%
    07:00 +28°C° 0 mm 2 mps 713 mmHg 15%
    08:00 +30°C° 0 mm 2 mps 714 mmHg 12%
    09:00 +34°C° 0 mm 2 mps 714 mmHg 9%
    10:00 +37°C° 0 mm 2 mps 714 mmHg 7%
    11:00 +39°C° 0 mm 2 mps 714 mmHg 6%
    12:00 +41°C° 0 mm 2 mps 714 mmHg 5%
    13:00 +43°C° 0 mm 2 mps 713 mmHg 5%
    14:00 +43°C° 0 mm 2 mps 713 mmHg 5%
    15:00 +43°C° 0 mm 2 mps 712 mmHg 4%
    16:00 +43°C° 0 mm 2 mps 712 mmHg 4%
    17:00 +39°C° 0 mm 1 mps 712 mmHg 6%
    18:00 +34°C° 0 mm 1 mps 712 mmHg 8%
    19:00 +30°C° 0 mm 1 mps 711 mmHg 9%
    20:00 +30°C° 0 mm 1 mps 712 mmHg 10%
    21:00 +29°C° 0 mm 1 mps 712 mmHg 10%
    22:00 +29°C° 0 mm 1 mps 712 mmHg 10%
    23:00 +28°C° 0 mm 1 mps 712 mmHg 11%

    22 September, Sunday

    Time Temperature Precipitation Wind Pressure Humidity
    00:00 +27°C° 0 mm 1 mps 712 mmHg 11%
    01:00 +27°C° 0 mm 1 mps 712 mmHg 12%
    02:00 +26°C° 0 mm 1 mps 712 mmHg 13%
    03:00 +25°C° 0 mm 1 mps 712 mmHg 14%
    04:00 +25°C° 0 mm 1 mps 712 mmHg 15%
    05:00 +26°C° 0 mm 1 mps 712 mmHg 14%
    06:00 +28°C° 0 mm 1 mps 713 mmHg 13%
    07:00 +30°C° 0 mm 1 mps 714 mmHg 12%
    08:00 +33°C° 0 mm 1 mps 714 mmHg 10%
    09:00 +36°C° 0 mm 1 mps 715 mmHg 8%
    10:00 +40°C° 0 mm 1 mps 715 mmHg 6%
    11:00 +41°C° 0 mm 1 mps 715 mmHg 6%
    12:00 +43°C° 0 mm 1 mps 715 mmHg 5%
    13:00 +44°C° 0 mm 1 mps 714 mmHg 4%
    14:00 +44°C° 0 mm 1 mps 714 mmHg 4%
    15:00 +44°C° 0 mm 1 mps 714 mmHg 4%
    16:00 +44°C° 0 mm 1 mps 714 mmHg 4%
    17:00 +41°C° 0 mm 2 mps 714 mmHg 6%
    18:00 +37°C° 0 mm 3 mps 714 mmHg 8%
    19:00 +34°C° 0 mm 3 mps 714 mmHg 10%
    20:00 +32°C° 0 mm 6 mps 714 mmHg 17%
    21:00 +31°C° 0 mm 8 mps 715 mmHg 24%
    22:00 +29°C° 0 mm 10 mps 715 mmHg 32%
    23:00 +27°C° 0 mm 10 mps 715 mmHg 33%

    23 September, Monday

    Time Temperature Precipitation Wind Pressure Humidity
    00:00 +26°C° 0 mm 10 mps 715 mmHg 35%
    01:00 +24°C° 0 mm 10 mps 715 mmHg 37%
    02:00 +23°C° 0 mm 9 mps 715 mmHg 39%
    03:00 +22°C° 0 mm 8 mps 715 mmHg 40%
    04:00 +21°C° 0 mm 7 mps 715 mmHg 42%
    05:00 +21°C° 0 mm 6 mps 716 mmHg 41%
    06:00 +21°C° 0 mm 6 mps 716 mmHg 41%
    07:00 +21°C° 0 mm 5 mps 717 mmHg 40%
    08:00 +25°C° 0 mm 5 mps 717 mmHg 35%
    09:00 +27°C° 0 mm 4 mps 717 mmHg 29%
    10:00 +30°C° 0 mm 4 mps 718 mmHg 24%
    11:00 +33°C° 0 mm 3 mps 717 mmHg 21%
    12:00 +35°C° 0 mm 2 mps 717 mmHg 17%
    13:00 +38°C° 0 mm 2 mps 716 mmHg 14%
    14:00 +37°C° 0 mm 1 mps 716 mmHg 12%
    15:00 +39°C° 0 mm 1 mps 715 mmHg 11%
    16:00 +37°C° 0 mm 0 mps 715 mmHg 10%
    17:00 +33°C° 0 mm 0 mps 715 mmHg 13%
    18:00 +29°C° 0 mm 0 mps 714 mmHg 16%
    19:00 +26°C° 0 mm 0 mps 714 mmHg 19%
    20:00 +28°C° 0 mm 1 mps 714 mmHg 19%
    21:00 +28°C° 0 mm 1 mps 714 mmHg 19%
    22:00 +28°C° 0 mm 2 mps 715 mmHg 19%
    23:00 +27°C° 0 mm 3 mps 715 mmHg 22%

    24 September, Tuesday

    Time Temperature Precipitation Wind Pressure Humidity
    00:00 +27°C° 0 mm 4 mps 715 mmHg 25%
    01:00 +26°C° 0 mm 5 mps 714 mmHg 27%
    02:00 +25°C° 0 mm 5 mps 715 mmHg 29%
    03:00 +24°C° 0 mm 6 mps 715 mmHg 31%
    04:00 +23°C° 0 mm 6 mps 715 mmHg 33%
    05:00 +23°C° 0 mm 6 mps 715 mmHg 32%
    06:00 +23°C° 0 mm 6 mps 716 mmHg 31%
    07:00 +24°C° 0 mm 6 mps 716 mmHg 29%
    08:00 +27°C° 0 mm 5 mps 717 mmHg 25%
    09:00 +30°C° 0 mm 5 mps 717 mmHg 21%
    10:00 +34°C° 0 mm 5 mps 718 mmHg 16%
    11:00 +36°C° 0 mm 5 mps 717 mmHg 14%
    12:00 +39°C° 0 mm 5 mps 717 mmHg 12%
    13:00 +41°C° 0 mm 5 mps 716 mmHg 10%
    14:00 +42°C° 0 mm 5 mps 716 mmHg 9%
    15:00 +43°C° 0 mm 5 mps 715 mmHg 9%
    16:00 +43°C° 0 mm 5 mps 715 mmHg 8%
    17:00 +40°C° 0 mm 6 mps 715 mmHg 10%
    18:00 +36°C° 0 mm 7 mps 715 mmHg 12%
    19:00 +33°C° 0 mm 7 mps 715 mmHg 14%
    20:00 +32°C° 0 mm 7 mps 715 mmHg 15%
    21:00 +30°C° 0 mm 7 mps 715 mmHg 16%
    22:00 +28°C° 0 mm 8 mps 715 mmHg 17%
    23:00 +27°C° 0 mm 7 mps 715 mmHg 18%
    Show more